Location: Unspecified
(0.0000°N, 0.0000°E)
Time: 11:09:57
(UTC+00:00)

Vanguard 1 Rocket - All Passes

Search period start: 11 December 2017 00:00
Search period end: 21 December 2017 00:00
Orbit: 656 x 4222 km, 34.3° (Epoch: 09 December)

Date Brightness Start Highest point End Pass type
(mag) Time Alt. Az. Time Alt. Az. Time Alt. Az.
11 Dec - 00:05:28 10° NW 00:31:15 60° NE 00:51:18 10° ESE visible
11 Dec - 02:38:58 10° WNW 03:03:50 63° SW 03:18:36 10° SE visible
11 Dec - 05:22:48 10° WSW 05:33:13 18° SW 05:40:35 10° S visible
11 Dec - 12:57:15 10° SSW 13:01:35 41° SE 13:07:40 10° ENE daylight
11 Dec - 15:22:05 10° W 15:27:32 30° NNW 15:36:31 10° NNE daylight
11 Dec - 17:52:53 10° NW 17:58:57 15° N 18:06:59 10° NNE daylight
11 Dec - 20:23:36 10° NNW 20:36:49 20° NNE 20:53:24 10° ENE visible
11 Dec - 22:51:54 10° NW 23:15:03 45° NNE 23:36:49 10° E visible
12 Dec - 01:22:48 10° NW 01:49:34 87° SW 02:07:20 10° SE visible
12 Dec - 04:01:23 10° W 04:20:07 33° SW 04:31:42 10° SSE visible
12 Dec - 11:48:23 10° S 11:50:57 15° SE 11:53:43 10° ESE daylight
12 Dec - 14:10:54 10° WSW 14:15:46 51° NNW 14:23:46 10° NE daylight
12 Dec - 16:39:30 10° NW 16:44:39 16° NNW 16:51:45 10° NNE daylight
12 Dec - 19:11:24 10° NNW 19:19:47 15° N 19:30:35 10° NE visible
12 Dec - 21:39:09 10° NNW 21:58:23 33° NNE 22:19:51 10° E visible
13 Dec - 00:08:06 10° NW 00:34:19 71° NE 00:54:56 10° ESE visible
13 Dec - 02:42:31 10° WNW 03:06:37 52° SW 03:21:32 10° SSE visible
13 Dec - 05:29:37 10° WSW 05:36:56 14° SW 05:42:38 10° S visible
13 Dec - 13:00:23 10° SW 13:04:51 72° SE 13:11:15 10° ENE daylight
13 Dec - 15:26:46 10° WNW 15:31:33 20° NNW 15:38:35 10° NNE daylight
13 Dec - 17:59:07 10° NNW 18:03:48 12° N 18:09:31 10° NNE visible
13 Dec - 20:27:07 10° NNW 20:41:30 23° NNE 20:59:39 10° ENE visible
13 Dec - 22:54:34 10° NW 23:18:23 53° NE 23:40:59 10° ESE visible
14 Dec - 01:25:49 10° WNW 01:52:20 74° SW 02:10:27 10° SE visible
14 Dec - 04:06:28 10° W 04:23:20 27° SW 04:34:22 10° SSE visible
14 Dec - 11:50:35 10° SSW 11:54:18 26° SE 11:58:29 10° E daylight
14 Dec - 14:14:56 10° W 14:19:28 31° NNW 14:26:21 10° NNE daylight
14 Dec - 16:45:59 10° NNW 16:49:10 12° N 16:52:55 10° NNE daylight
14 Dec - 19:15:42 10° NNW 19:24:47 16° NNE 19:36:31 10° NE visible
14 Dec - 21:42:00 10° NNW 22:02:08 39° NNE 22:24:49 10° E visible
15 Dec - 00:10:51 10° NW 00:37:11 83° NE 00:58:18 10° SE visible
15 Dec - 02:46:30 10° WNW 03:09:30 43° SW 03:24:22 10° SSE visible
15 Dec - 05:37:58 10° SW 05:40:58 11° SSW 05:43:42 10° SSW visible
15 Dec - 13:03:50 10° WSW 13:08:16 65° NW 13:14:27 10° NE daylight
15 Dec - 15:32:18 10° NW 15:35:43 14° NNW 15:40:04 10° NNE daylight
15 Dec - 18:05:17 10° N 18:08:46 11° N 18:12:45 10° NNE visible
15 Dec - 20:30:14 10° NNW 20:45:47 27° NNE 21:05:38 10° E visible
15 Dec - 22:57:16 10° NW 23:21:27 63° NE 23:44:46 10° ESE visible
16 Dec - 01:29:07 10° WNW 01:55:05 63° SW 02:13:24 10° SE visible
16 Dec - 04:12:15 10° WSW 04:26:51 22° SW 04:37:00 10° S visible
16 Dec - 11:53:23 10° SW 11:57:39 46° SE 12:02:29 10° ENE daylight
16 Dec - 14:19:30 10° WNW 14:23:19 20° NNW 14:28:32 10° NNE daylight
16 Dec - 19:19:18 10° NNW 19:29:33 18° NNE 19:43:03 10° ENE visible
16 Dec - 21:44:45 10° NNW 22:05:30 46° NE 22:29:18 10° ESE visible
17 Dec - 00:13:47 10° NW 00:39:57 85° SW 01:01:27 10° SE visible
17 Dec - 02:51:00 10° W 03:12:34 36° SW 03:27:08 10° SSE visible
17 Dec - 10:43:35 10° SSW 10:46:51 18° SSE 10:49:54 10° ESE daylight
17 Dec - 13:07:40 10° W 13:11:48 36° NNW 13:17:17 10° NE daylight
17 Dec - 18:10:05 10° N 18:13:42 11° NNE 18:17:50 10° NNE visible
17 Dec - 20:33:08 10° NNW 20:49:38 32° NNE 21:11:09 10° E visible
17 Dec - 23:00:02 10° NW 23:24:18 74° NE 23:48:15 10° ESE visible
18 Dec - 01:32:45 10° WNW 01:57:53 53° SW 02:16:16 10° SE visible
18 Dec - 04:18:41 10° WSW 04:30:45 17° SSW 04:39:37 10° S visible
18 Dec - 11:56:34 10° SW 12:01:02 88° SE 12:06:00 10° NE daylight
18 Dec - 14:25:10 10° NW 14:27:19 12° NNW 14:29:48 10° N daylight
18 Dec - 19:22:24 10° NNW 19:33:57 21° NNE 19:49:36 10° ENE visible
18 Dec - 21:47:30 10° NW 22:08:34 55° NE 22:33:21 10° ESE visible
19 Dec - 00:16:57 10° WNW 00:42:39 73° SW 01:04:26 10° SE visible
19 Dec - 02:56:05 10° W 03:15:57 29° SW 03:29:54 10° SSE visible
19 Dec - 10:45:58 10° SSW 10:50:23 32° SSE 10:54:21 10° E daylight
19 Dec - 13:12:00 10° WNW 13:15:28 21° NNW 13:19:42 10° NNE daylight
19 Dec - 18:13:20 10° N 18:18:29 12° NNE 18:24:41 10° NE visible
19 Dec - 20:35:56 10° NNW 20:53:06 38° NE 21:16:05 10° E visible
19 Dec - 23:02:56 10° NW 23:27:02 86° NE 23:51:29 10° SE visible
20 Dec - 01:36:49 10° WNW 02:00:53 44° SW 02:19:03 10° SSE visible
20 Dec - 04:25:37 10° SW 04:35:02 15° SSW 04:42:22 10° S visible
20 Dec - 09:35:51 10° S 09:39:06 15° SSE 09:41:52 10° ESE daylight
20 Dec - 12:00:07 10° WSW 12:04:27 48° NW 12:09:08 10° NE daylight
20 Dec - 19:25:17 10° NNW 19:37:56 25° NNE 19:55:45 10° E visible
20 Dec - 21:50:18 10° NW 22:11:26 65° NE 22:37:01 10° ESE visible
